This demonstration page uses our WeatherBlox Daily Observations layout. Learn more.

Left ArrowRight Arrow

39.12711, -84.51439

Hourly Observations for June 8, 2018

Temp ( °F °C ) Dew Point ( °F °C ) Humidity (%) Winds ( mph kmh ) Pressure ( in mb ) Visibility ( mi km ) Precip ( " mm )
12:53 am 00:53 Partly Cloudy 75 23.9 63 17.2 66 66 ESE 3 6 30.09 1019 10 16 N/A
1:53 am 01:53 Clear 70 21.1 65 18.3 84 84 S 5 7 30.06 1018 10 16 N/A
2:53 am 02:53 Clear 71 21.7 66 18.9 84 84 WSW 3 6 30.06 1018 10 16 N/A
3:53 am 03:53 Clear 68 20 66 18.9 93 93 N N/A 30.07 1018 10 16 N/A
4:53 am 04:53 Clear 69 20.6 66 18.9 90 90 N N/A 30.09 1019 10 16 N/A
5:53 am 05:53 Clear 68 20 66 18.9 93 93 N N/A 30.10 1019 10 16 N/A
6:53 am 06:53 Sunny 68 20 67 19.4 96 96 N N/A 30.12 1020 10 16 N/A
7:53 am 07:53 Sunny 70 21.1 68 20 93 93 N N/A 30.14 1021 10 16 N/A
8:53 am 08:53 Sunny 75 23.9 67 19.4 76 76 N N/A 30.14 1021 10 16 N/A
9:53 am 09:53 Sunny 77 25 67 19.4 71 71 N N/A 30.15 1021 10 16 N/A
10:53 am 10:53 Sunny 80 26.7 69 20.6 69 69 S 3 6 30.14 1021 10 16 N/A
11:53 am 11:53 Partly Cloudy 81 27.2 69 20.6 67 67 S 6 9 30.14 1021 10 16 N/A
12:53 pm 12:53 Sunny 83 28.3 69 20.6 63 63 SSW 6 9 30.14 1021 10 16 N/A
1:53 pm 13:53 Mostly Cloudy 83 28.3 71 21.7 67 67 S 8 13 30.13 1020 10 16 N/A
2:53 pm 14:53 Partly Cloudy 87 30.6 72 22.2 61 61 S 8 13 30.10 1019 10 16 N/A
3:53 pm 15:53 Mostly Cloudy 84 28.9 70 21.1 63 63 S 5 7 30.08 1019 10 16 N/A
4:53 pm 16:53 Partly Cloudy 84 28.9 74 23.3 72 72 VRB 3 6 30.07 1018 10 16 N/A
5:36 pm 17:36 Cloudy with Nearby Thunderstorms 86 30 71 21.7 61 61 SSW 13 20 30.03 1017 10 16 N/A
5:53 pm 17:53 Cloudy with Nearby Thunderstorms 87 30.6 72 22.2 61 61 SSW 10 17 30.05 1018 6 10 N/A
6:27 pm 18:27 Mostly Cloudy with Thunderstorms 76 24.4 67 19.4 74 74 ENE 28 44 30.09 1019 10 16 N/A
6:46 pm 18:46 Cloudy with Nearby Thunderstorms 73 22.8 67 19.4 81 81 NE 22 35 30.09 1019 10 16 N/A
6:53 pm 18:53 Cloudy with Nearby Thunderstorms 71 21.7 67 19.4 87 87 ENE 14 22 30.13 1020 10 16 N/A
7:20 pm 19:20 Cloudy with Thunderstorms 71 21.7 69 20.6 94 94 E 15 24 30.09 1019 8 13 0.13 3.30
7:53 pm 19:53 Cloudy with Thunderstorms 68 20 68 20 100 100 NE 14 22 30.14 1021 8 13 0.19 4.83
8:09 pm 20:09 Mostly Cloudy with Nearby Thunderstorms 68 20 68 20 100 100 VRB 3 6 30.12 1020 9 14 0.01 0.25
8:53 pm 20:53 Partly Cloudy 68 20 68 20 100 100 E 5 7 30.14 1021 10 16 0.01 0.25
9:19 pm 21:19 Cloudy with Thunderstorms 68 20 68 20 100 100 NNE 3 6 30.15 1021 10 16 N/A
9:53 pm 21:53 Mostly Cloudy with Thunderstorms 68 20 67 19.4 96 96 NNE 5 7 30.16 1021 10 16 N/A
10:31 pm 22:31 Mostly Cloudy with Strong Thunderstorms 68 20 67 19.4 96 96 SSW 5 7 30.15 1021 3 5 0.07 1.78
10:53 pm 22:53 Mostly Cloudy with Light Rain 68 20 67 19.4 96 96 NE 6 9 30.15 1021 8 13 0.13 3.30
11:53 pm 23:53 Clear with Mist and Fog 66 18.9 66 18.9 100 100 N N/A 30.15 1021 5 8 N/A

Powered by AerisWeather